User: anonymous   Login
Location: Unspecified
(0.0000°N, 0.0000°E)
Time: 06:13:59
(UTC+00:00)
Language:

TISAT 1 - Orbit

View from above orbital plane
View from above orbital plane
View from above satellite
View from above satellite

Ground track
Ground track

The orbit data is extracted from the following two-line orbital elements,

1 36799U 10035E   19082.98010675  .00000249  00000-0  31291-4 0  9994
2 36799  98.1419 232.3244 0012428  17.0625 343.1007 14.91032423471847
Epoch (UTC): 23 March 2019 23:31:21
Eccentricity: 0.0012428
inclination: 98.1419°
perigee height: 586 km
apogee height: 603 km
right ascension of ascending node: 232.3244°
argument of perigee: 17.0625°
revolutions per day: 14.91032423
mean anomaly at epoch: 343.1007°
orbit number at epoch: 47184

The dashed part of the orbit path shows where the satellite is in the earth's shadow,  

DLR